Location: Alladorf
(49.9620°N, 11.3790°E)
Time: 21:29:57
(UTC+00:00)

NOSS 3-4 (C) - Pass Details

Date: 29 November 2020
Orbit: 878 x 1334 km, 63.4° (Epoch: 22 January)

Event Time Altitude Azimuth Distance (km) Brightness Sun altitude
Exits shadow 05:48:28 - 267° (W) 2,743 5.3 -9.4°
Reaches altitude 10° 05:48:54 10° 269° (W) 2,602 5.2 -9.3°
Maximum altitude 05:54:25 35° 335° (NNW) 1,498 4.1 -8.5°
Drops below altitude 10° 06:00:25 10° 40° (NE) 2,840 6.2 -7.6°
Sets 06:03:27 0° 50° (NE) 3,870 7.0 -7.2°
